Location: Davayat
(45.9471°N, 3.1105°E)
Time: 22:56:07
(UTC+00:00)

Meteor 2-12 Rocket - Pass Details

Date: 24 April 2021
Orbit: 935 x 958 km, 82.5° (Epoch: 16 May)

Event Time Altitude Azimuth Distance (km) Brightness Sun altitude
Rises 23:09:09 0° 354° (N) 3,629 8.7 -30.3°
Reaches altitude 10° 23:11:43 10° 358° (N) 2,676 7.7 -30.4°
Enters shadow 23:17:29 57° 67° (ENE) 1,107 4.7 -30.5°
